GW5647 Weather Reports


Display with metric or nautical units.
time (UTC)temp
F
wind
direction
speed
MPH
gust
MPH
rain 1hr
in
rain 24hr
in
rain mn
in
humidity
%
barometer
mb
20260505041433 73 0 0.0 0.0 0.00 0.00 0.00 96 1018.4
20260505040931 73 0 0.0 0.0 0.00 0.00 0.00 96 1018.7
20260505040428 73 0 0.0 0.0 0.00 0.00 0.00 96 1018.6
20260505035925 73 0 0.0 0.0 0.00 0.00 0.00 96 1018.6
20260505035421 73 0 0.0 0.0 0.00 0.00 0.00 96 1018.6
20260505034918 73 0 0.0 0.0 0.00 0.00 0.00 96 1018.4
20260505034414 73 0 0.0 0.0 0.00 0.00 0.00 95 1018.6
20260505033912 73 0 0.0 0.0 0.00 0.00 0.00 95 1018.8
20260505033408 73 0 0.0 0.0 0.00 0.00 0.00 95 1018.7
20260505032907 73 0 0.0 0.0 0.00 0.00 0.00 95 1018.9
20260505032403 73 0 0.0 0.0 0.00 0.00 0.00 95 1018.7
20260505031900 73 0 0.0 0.0 0.00 0.00 0.00 95 1018.9
20260505031356 73 0 0.0 0.0 0.00 0.00 0.00 95 1018.8
20260505030854 73 0 0.0 0.0 0.00 0.00 0.00 95 1018.7
20260505030349 73 0 0.0 0.0 0.00 0.00 0.00 95 1018.9
20260505025845 73 0 0.0 0.0 0.00 0.00 0.00 95 1018.7
20260505025343 73 0 0.0 0.0 0.00 0.00 0.00 95 1018.7
20260505024842 73 0 0.0 0.0 0.00 0.00 0.00 95 1018.9
20260505024339 73 0 0.0 0.0 0.00 0.00 0.00 95 1018.9
20260505023835 73 0 0.0 0.0 0.00 0.00 0.00 95 1018.8
20260505023332 73 0 0.0 0.0 0.00 0.00 0.00 95 1018.6
20260505022830 73 0 0.0 0.0 0.00 0.00 0.00 95 1018.9
20260505022327 73 0 0.0 0.0 0.00 0.00 0.00 95 1018.8
20260505021824 73 0 0.0 0.0 0.00 0.00 0.00 95 1018.5
20260505021320 73 0 0.0 0.0 0.00 0.00 0.00 95 1018.9
20260505020816 73 0 0.0 0.0 0.00 0.00 0.00 95 1018.4
20260505020312 73 0 0.0 0.0 0.00 0.00 0.00 95 1018.6
20260505015809 73 0 0.0 0.0 0.00 0.00 0.00 95 1018.7
20260505015306 73 0 0.0 0.0 0.00 0.00 0.00 95 1018.5
20260505014804 73 0 0.0 0.0 0.00 0.00 0.00 95 1018.6
20260505014301 73 0 0.0 0.0 0.00 0.00 0.00 95 1018.3
20260505013757 73 0 0.0 0.0 0.00 0.00 0.00 95 1018.4
20260505013254 73 0 0.0 0.0 0.00 0.00 0.00 95 1018.6
20260505012752 73 0 0.0 0.0 0.00 0.00 0.00 94 1018.1
20260505012250 73 0 0.0 0.0 0.00 0.00 0.00 94 1018.2
20260505011745 73 0 0.0 0.0 0.00 0.00 0.00 94 1018.2
20260505011242 73 0 0.0 0.0 0.00 0.00 0.00 94 1018.1
20260505010738 73 0 0.0 0.0 0.00 0.00 0.00 94 1017.9
20260505010234 73 0 0.0 0.0 0.00 0.00 0.00 94 1017.9
20260505005731 73 0 0.0 0.0 0.00 0.00 0.00 94 1018.0
20260505005228 73 0 0.0 0.0 0.00 0.00 0.00 94 1018.0
20260505004725 73 0 0.0 0.0 0.00 0.00 0.00 93 1017.8
20260505004221 74 0 0.0 0.0 0.00 0.00 0.00 93 1017.9
20260505003719 74 0 0.0 0.0 0.00 0.00 0.00 93 1017.7
20260505003217 74 0 0.0 0.0 0.00 0.00 0.00 93 1017.9
20260505002712 74 0 0.0 0.0 0.00 0.00 0.00 92 1017.7
20260505002210 74 0 0.0 0.0 0.00 0.00 0.00 92 1017.7
20260505001708 74 0 0.0 0.0 0.00 0.00 0.00 92 1017.8
20260505001205 74 0 0.0 0.0 0.00 0.00 0.00 92 1017.6
20260505000702 74 0 0.0 0.0 0.00 0.00 0.00 91 1017.7
20260505000200 75 0 0.0 0.0 0.00 0.00 0.00 91 1017.7
20260504235656 75 0 0.0 0.0 0.00 0.00 0.00 91 1017.6
20260504235152 75 0 0.0 0.0 0.00 0.00 0.00 90 1017.7
20260504234650 75 0 0.0 0.0 0.00 0.00 0.00 90 1017.7
20260504234147 76 0 0.0 0.0 0.00 0.00 0.00 90 1017.6
20260504233642 76 0 0.0 0.0 0.00 0.00 0.00 89 1017.5
20260504233138 76 0 0.0 0.0 0.00 0.00 0.00 89 1017.5
20260504232637 76 0 0.0 0.0 0.00 0.00 0.00 89 1017.6
20260504232133 77 0 0.0 0.0 0.00 0.00 0.00 89 1017.3
20260504231630 77 0 0.0 0.0 0.00 0.00 0.00 88 1017.4
20260504231126 77 359 0.0 0.0 0.00 0.00 0.00 88 1017.5
20260504230622 77 359 0.0 0.0 0.00 0.00 0.00 88 1017.3
20260504230121 77 359 0.0 0.0 0.00 0.00 0.00 87 1017.5
20260504225619 77 359 0.0 0.0 0.00 0.00 0.00 87 1017.0
20260504225115 78 359 0.0 0.0 0.00 0.00 0.00 87 1017.2
20260504224612 78 359 0.0 0.0 0.00 0.00 0.00 86 1017.1
20260504224109 78 359 0.0 0.0 0.00 0.00 0.00 85 1017.2
20260504223606 78 359 0.0 0.0 0.00 0.00 0.00 84 1016.7
20260504223101 79 359 0.0 0.0 0.00 0.00 0.00 84 1016.9
20260504222559 79 359 0.0 0.0 0.00 0.00 0.00 83 1017.0
20260504222056 79 297 1.0 2.0 0.00 0.00 0.00 81 1017.0
20260504221553 80 283 0.0 1.0 0.00 0.00 0.00 81 1016.6
20260504221050 80 327 0.0 0.0 0.00 0.00 0.00 81 1016.6
20260504220546 80 327 0.0 0.0 0.00 0.00 0.00 80 1016.6
20260504220043 80 327 0.0 0.0 0.00 0.00 0.00 80 1016.7
20260504215539 80 59 0.0 1.0 0.00 0.00 0.00 80 1016.5
20260504215037 80 59 0.0 0.0 0.00 0.00 0.00 81 1016.4
20260504214533 80 60 0.0 0.0 0.00 0.00 0.00 82 1016.4
20260504214030 80 60 0.0 1.0 0.00 0.00 0.00 78 1016.5
20260504213526 81 60 0.0 3.0 0.00 0.00 0.00 78 1016.2
20260504213024 82 316 0.0 0.0 0.00 0.00 0.00 78 1016.3
20260504212519 82 296 0.0 1.0 0.00 0.00 0.00 77 1016.2
20260504212017 82 296 0.0 2.0 0.00 0.00 0.00 75 1016.2
20260504211513 82 344 0.0 0.0 0.00 0.00 0.00 78 1016.3
20260504211011 82 344 0.0 1.0 0.00 0.00 0.00 80 1016.3
20260504210508 81 295 1.0 1.0 0.00 0.00 0.00 80 1016.1
20260504210004 81 270 2.0 3.0 0.00 0.00 0.00 78 1016.0
20260504205502 82 263 0.0 2.0 0.00 0.00 0.00 77 1016.1
20260504205000 83 234 1.0 3.0 0.00 0.00 0.00 75 1016.1
20260504204458 83 26 0.0 3.0 0.00 0.00 0.00 76 1015.9
20260504203957 82 310 2.0 2.0 0.00 0.00 0.00 76 1016.0
20260504203454 81 298 0.0 1.0 0.00 0.00 0.00 77 1016.1
20260504202950 81 35 0.0 0.0 0.00 0.00 0.00 79 1016.2
20260504202446 81 343 1.0 1.0 0.00 0.00 0.00 79 1016.2
20260504201943 81 302 0.0 1.0 0.00 0.00 0.00 79 1015.9
20260504201441 81 178 0.0 0.0 0.00 0.00 0.00 78 1016.3
20260504200938 81 142 0.0 2.0 0.00 0.00 0.00 79 1016.5
20260504200435 81 262 1.0 1.0 0.00 0.00 0.00 79 1016.5
20260504195931 81 29 0.0 2.0 0.00 0.00 0.00 80 1016.4
20260504195427 81 16 0.0 2.0 0.00 0.00 0.00 79 1016.3
20260504194924 81 357 2.0 3.0 0.00 0.00 0.00 78 1016.2
20260504194420 81 42 0.0 2.0 0.00 0.00 0.00 78 1016.4
20260504193916 81 297 1.0 7.0 0.00 0.00 0.00 78 1016.3
20260504193413 81 268 3.0 6.0 0.00 0.00 0.00 78 1016.6
20260504192912 81 344 0.0 3.0 0.00 0.00 0.00 80 1016.6
20260504192409 81 343 0.0 1.0 0.00 0.00 0.00 82 1016.6
20260504191908 80 338 4.0 4.0 0.00 0.00 0.00 83 1016.5
20260504191405 80 272 1.0 3.0 0.00 0.00 0.00 81 1016.6
20260504190900 80 108 2.0 3.0 0.00 0.00 0.00 82 1016.5
20260504190357 79 46 1.0 4.0 0.00 0.00 0.00 84 1016.6
20260504185853 80 5 1.0 2.0 0.00 0.00 0.00 83 1016.7
20260504185350 80 259 0.0 6.0 0.00 0.00 0.00 81 1017.0
20260504184846 81 69 2.0 2.0 0.00 0.00 0.00 80 1016.7
20260504184342 82 309 0.0 3.0 0.00 0.00 0.00 78 1016.5
20260504183838 82 55 1.0 6.0 0.00 0.00 0.00 76 1016.5
20260504183336 83 267 4.0 6.0 0.00 0.00 0.00 75 1016.7
20260504182833 83 314 4.0 6.0 0.00 0.00 0.00 73 1016.6
20260504182331 83 297 0.0 2.0 0.00 0.00 0.00 74 1016.9
20260504181828 82 141 0.0 3.0 0.00 0.00 0.00 74 1016.9
20260504181325 83 319 0.0 3.0 0.00 0.00 0.00 75 1017.1
20260504180824 83 57 1.0 4.0 0.00 0.00 0.00 74 1017.3
20260504180322 84 336 0.0 4.0 0.00 0.00 0.00 73 1017.1
20260504175820 86 286 2.0 6.0 0.00 0.00 0.00 69 1017.5
20260504175316 85 341 0.0 1.0 0.00 0.00 0.00 72 1017.2
20260504174815 84 341 0.0 1.0 0.00 0.00 0.00 71 1017.7
20260504174312 84 68 2.0 3.0 0.00 0.00 0.00 73 1017.4
20260504173808 84 45 1.0 4.0 0.00 0.00 0.00 73 1017.4
20260504173305 83 99 2.0 3.0 0.00 0.00 0.00 72 1017.6
20260504172802 83 335 3.0 4.0 0.00 0.00 0.00 72 1017.4
20260504172259 84 304 2.0 3.0 0.00 0.00 0.00 72 1017.5
20260504171754 84 209 0.0 2.0 0.00 0.00 0.00 73 1017.6
20260504171252 83 41 3.0 3.0 0.00 0.00 0.00 71 1017.7
20260504170749 85 82 2.0 7.0 0.00 0.00 0.00 70 1017.8
20260504170246 85 250 4.0 4.0 0.00 0.00 0.00 67 1017.6
20260504160204 86 11 3.0 4.0 0.00 0.00 0.00 62 1018.1
20260504151132 85 318 2.0 3.0 0.00 0.00 0.00 65 1018.2
20260504150630 84 300 0.0 4.0 0.00 0.00 0.00 64 1018.3
20260504150126 84 255 4.0 4.0 0.00 0.00 0.00 64 1018.7
20260504141055 83 269 0.0 1.0 0.00 0.00 0.00 75 1018.3
20260504140551 82 25 0.0 2.0 0.00 0.00 0.00 74 1018.2
20260504130516 80 286 4.0 4.0 0.00 0.00 0.00 78 1018.4
20260504110403 72 346 0.0 2.0 0.00 0.00 0.00 96 1018.6
20260504100320 71 265 0.0 0.0 0.00 0.00 0.00 95 1018.0
20260504081714 72 312 1.0 1.0 0.00 0.00 0.00 95 1016.9
20260504081210 72 265 0.0 1.0 0.00 0.00 0.00 95 1016.9
20260504080707 72 265 0.0 0.0 0.00 0.00 0.00 95 1017.1
20260504080203 72 265 0.0 0.0 0.00 0.00 0.00 95 1016.9
20260504070131 73 248 0.0 0.0 0.00 0.00 0.00 94 1017.0
20260504050520 72 240 0.0 0.0 0.00 0.00 0.00 94 1017.8
20260504050017 73 240 0.0 0.0 0.00 0.00 0.00 94 1017.9
20260504045513 73 240 0.0 0.0 0.00 0.00 0.00 94 1018.1
20260504045009 73 240 1.0 1.0 0.00 0.00 0.00 94 1017.9
20260504044506 73 240 0.0 1.0 0.00 0.00 0.00 94 1017.9